Location: Partizánske
(48.6285°N, 18.3769°E)
Time: 03:56:06
(UTC+01:00)

ISS - Pass Details

Date: 07 December 2021
Orbit: 413 x 422 km, 51.6° (Epoch: 27 January)

Event Time Altitude Azimuth Distance (km) Brightness Sun altitude
Rises 17:02:45 0° 290° (WNW) 2,389 0.9 -11.3°
Reaches altitude 10° 17:04:57 10° 282° (WNW) 1,518 0.0 -11.6°
Maximum altitude 17:08:08 37° 214° (SSW) 674 -2.2 -12.1°
Drops below altitude 10° 17:11:17 10° 145° (SE) 1,504 -1.1 -12.6°
Enters shadow 17:13:27 - 136° (SE) 2,361 -0.2 -12.9°
